SWU2313 LIPB-LICJ

Flight info

Callsign SWU2313
Flight time 1h 46m
Altitude 23000
Route ADOSA DCT TIBER DCT GIANO
Aircraft DH8D/M-SDE2E3FGRY/H

Departure

Time 2026-05-04 10:00
Airport Bolzano Airport (LIPB)

Arrival

Time 2026-05-04 11:46
Airport Falcone–Borsellino Airport (LICJ)
Time Latitude Longitude Altitude Speed Heading
2026-05-04 09:14 46.46374 11.32912 809 ft 0 kts 100°
2026-05-04 09:49 46.46374 11.32913 812 ft 0 kts 101°
2026-05-04 09:49 46.46371 11.32921 812 ft 1 kts 128°
2026-05-04 09:51 46.46622 11.32919 814 ft 5 kts 10°
2026-05-04 09:51 46.46627 11.32920 814 ft 0 kts 11°
2026-05-04 09:52 46.46657 11.32927 815 ft 5 kts
2026-05-04 09:52 46.46681 11.32894 814 ft 5 kts 280°
2026-05-04 09:52 46.46682 11.32828 814 ft 9 kts 248°
2026-05-04 09:53 46.46643 11.32803 814 ft 0 kts 189°
2026-05-04 09:57 46.46640 11.32803 814 ft 7 kts 190°
2026-05-04 09:58 46.46268 11.32704 811 ft 100 kts 189°
2026-05-04 09:58 46.45359 11.32464 844 ft 154 kts 185°
2026-05-04 09:58 46.44284 11.32170 1315 ft 164 kts 191°
2026-05-04 10:00 46.36439 11.26954 5667 ft 190 kts 192°
2026-05-04 10:00 46.35144 11.26502 6274 ft 191 kts 193°
2026-05-04 10:02 46.25079 11.22331 9489 ft 234 kts 197°
2026-05-04 10:04 46.14120 11.17452 12877 ft 235 kts 197°
2026-05-04 10:04 46.12561 11.16755 13264 ft 236 kts 197°
2026-05-04 10:04 46.10986 11.16050 13658 ft 236 kts 197°
2026-05-04 10:04 46.09426 11.15353 14025 ft 238 kts 197°
2026-05-04 10:05 46.07830 11.14641 14355 ft 239 kts 197°
2026-05-04 10:05 46.06239 11.13941 14661 ft 242 kts 195°
2026-05-04 10:05 46.04594 11.13410 14970 ft 244 kts 191°
2026-05-04 10:05 46.02903 11.12964 15243 ft 247 kts 191°
2026-05-04 10:06 46.01214 11.12520 15521 ft 250 kts 191°
2026-05-04 10:06 45.99488 11.12066 15810 ft 252 kts 191°
2026-05-04 10:06 45.97751 11.11608 16095 ft 253 kts 191°
2026-05-04 10:08 45.87200 11.09479 17758 ft 260 kts 166°
2026-05-04 10:08 45.85460 11.10235 18013 ft 261 kts 163°
2026-05-04 10:08 45.83734 11.11016 18272 ft 262 kts 163°
2026-05-04 10:08 45.82002 11.11796 18523 ft 262 kts 163°
2026-05-04 10:09 45.80251 11.12582 18769 ft 263 kts 163°
2026-05-04 10:09 45.78504 11.13362 19016 ft 263 kts 164°
2026-05-04 10:09 45.76762 11.14137 19282 ft 264 kts 164°
2026-05-04 10:09 45.75013 11.14913 19525 ft 264 kts 164°
2026-05-04 10:10 45.73239 11.15699 19776 ft 265 kts 164°
2026-05-04 10:10 45.71497 11.16469 20008 ft 265 kts 164°
2026-05-04 10:10 45.69732 11.17247 20230 ft 265 kts 164°
2026-05-04 10:10 45.67966 11.18026 20448 ft 266 kts 164°
2026-05-04 10:11 45.66189 11.18807 20675 ft 266 kts 164°
2026-05-04 10:11 45.64412 11.19588 20895 ft 267 kts 164°
2026-05-04 10:11 45.62647 11.20364 21108 ft 267 kts 164°
2026-05-04 10:11 45.60877 11.21140 21318 ft 267 kts 165°
2026-05-04 10:12 45.59083 11.21927 21523 ft 267 kts 165°
2026-05-04 10:12 45.57305 11.22706 21716 ft 268 kts 165°
2026-05-04 10:12 45.55539 11.23479 21906 ft 268 kts 165°
2026-05-04 10:12 45.53760 11.24257 22091 ft 268 kts 165°
2026-05-04 10:13 45.51958 11.25045 22268 ft 268 kts 165°
2026-05-04 10:13 45.50201 11.25813 22435 ft 268 kts 165°
2026-05-04 10:13 45.48417 11.26592 22601 ft 268 kts 165°
2026-05-04 10:13 45.46629 11.27372 22764 ft 268 kts 165°
2026-05-04 10:14 45.44855 11.28145 22920 ft 268 kts 165°
2026-05-04 10:14 45.43073 11.28922 23039 ft 270 kts 165°
2026-05-04 10:16 45.29646 11.34771 23082 ft 306 kts 165°
2026-05-04 10:16 45.27585 11.35667 23082 ft 310 kts 165°
2026-05-04 10:16 45.25504 11.36572 23083 ft 313 kts 164°
2026-05-04 10:16 45.23423 11.37478 23081 ft 316 kts 164°
2026-05-04 10:17 45.21326 11.38388 23080 ft 316 kts 165°
2026-05-04 10:17 45.19221 11.39302 23081 ft 316 kts 165°
2026-05-04 10:19 45.04488 11.45659 23078 ft 316 kts 164°
2026-05-04 10:19 45.02369 11.46569 23082 ft 316 kts 164°
2026-05-04 10:19 45.00277 11.47467 23081 ft 316 kts 165°
2026-05-04 10:19 44.98151 11.48379 23082 ft 317 kts 164°
2026-05-04 10:20 44.96039 11.49285 23081 ft 317 kts 164°
2026-05-04 10:20 44.93956 11.50177 23086 ft 317 kts 165°
2026-05-04 10:20 44.91843 11.51080 23089 ft 317 kts 165°
2026-05-04 10:20 44.89717 11.51990 23091 ft 317 kts 164°
2026-05-04 10:21 44.87613 11.52889 23091 ft 318 kts 165°
2026-05-04 10:21 44.85486 11.53797 23091 ft 318 kts 165°
2026-05-04 10:21 44.83385 11.54694 23093 ft 317 kts 165°
2026-05-04 10:21 44.81256 11.55601 23097 ft 317 kts 165°
2026-05-04 10:22 44.77021 11.57403 23093 ft 317 kts 165°
2026-05-04 10:22 44.74921 11.58296 23092 ft 317 kts 164°
2026-05-04 10:22 44.72804 11.59195 23090 ft 317 kts 164°
2026-05-04 10:23 44.70690 11.60092 23094 ft 317 kts 165°
2026-05-04 10:23 44.68598 11.60979 23093 ft 316 kts 164°
2026-05-04 10:25 44.53858 11.67214 23096 ft 314 kts 165°
2026-05-04 10:25 44.51791 11.68086 23094 ft 314 kts 165°
2026-05-04 10:25 44.49697 11.68968 23098 ft 314 kts 165°
2026-05-04 10:25 44.47612 11.69846 23096 ft 313 kts 165°
2026-05-04 10:26 44.45526 11.70723 23096 ft 313 kts 165°
2026-05-04 10:26 44.43436 11.71603 23098 ft 313 kts 165°
2026-05-04 10:26 44.41329 11.72487 23101 ft 313 kts 165°
2026-05-04 10:26 44.39244 11.73363 23103 ft 313 kts 165°
2026-05-04 10:27 44.37165 11.74235 23105 ft 312 kts 165°
2026-05-04 10:27 44.35101 11.75100 23103 ft 312 kts 165°
2026-05-04 10:27 44.33013 11.75974 23106 ft 312 kts 165°
2026-05-04 10:27 44.30927 11.76848 23104 ft 312 kts 165°
2026-05-04 10:28 44.28849 11.77717 23108 ft 312 kts 165°
2026-05-04 10:28 44.26776 11.78583 23108 ft 312 kts 165°
2026-05-04 10:28 44.24700 11.79450 23108 ft 312 kts 165°
2026-05-04 10:28 44.22622 11.80318 23110 ft 311 kts 165°
2026-05-04 10:29 44.20559 11.81178 23115 ft 311 kts 165°
2026-05-04 10:29 44.18483 11.82043 23116 ft 311 kts 165°
2026-05-04 10:29 44.16402 11.82910 23120 ft 311 kts 165°
2026-05-04 10:29 44.14336 11.83769 23121 ft 311 kts 165°
2026-05-04 10:30 44.12242 11.84640 23123 ft 311 kts 165°
2026-05-04 10:30 44.10186 11.85494 23125 ft 311 kts 165°
2026-05-04 10:30 44.08116 11.86354 23127 ft 310 kts 165°
2026-05-04 10:30 44.06024 11.87222 23133 ft 310 kts 164°
2026-05-04 10:31 44.03958 11.88078 23137 ft 310 kts 165°
2026-05-04 10:31 44.01886 11.88937 23131 ft 310 kts 164°
2026-05-04 10:32 43.89475 11.94066 23138 ft 310 kts 165°
2026-05-04 10:33 43.87403 11.94920 23136 ft 310 kts 165°
2026-05-04 10:33 43.85340 11.95770 23134 ft 310 kts 165°
2026-05-04 10:33 43.83275 11.96620 23131 ft 311 kts 165°
2026-05-04 10:33 43.81198 11.97474 23129 ft 311 kts 165°
2026-05-04 10:34 43.79134 11.98322 23127 ft 311 kts 165°
2026-05-04 10:34 43.77074 11.99169 23127 ft 310 kts 165°
2026-05-04 10:34 43.75001 12.00020 23130 ft 310 kts 165°
2026-05-04 10:34 43.72928 12.00870 23130 ft 310 kts 165°
2026-05-04 10:35 43.70867 12.01715 23130 ft 310 kts 165°
2026-05-04 10:35 43.68775 12.02571 23131 ft 310 kts 165°
2026-05-04 10:35 43.66717 12.03414 23133 ft 310 kts 165°
2026-05-04 10:35 43.64656 12.04256 23135 ft 310 kts 165°
2026-05-04 10:36 43.62571 12.05109 23132 ft 310 kts 165°
2026-05-04 10:36 43.60486 12.05960 23130 ft 310 kts 165°
2026-05-04 10:36 43.58420 12.06803 23132 ft 311 kts 165°
2026-05-04 10:36 43.56359 12.07643 23133 ft 311 kts 165°
2026-05-04 10:37 43.54254 12.08500 23131 ft 312 kts 165°
2026-05-04 10:37 43.52179 12.09346 23131 ft 313 kts 165°
2026-05-04 10:37 43.50082 12.10199 23133 ft 314 kts 165°
2026-05-04 10:37 43.47992 12.11049 23136 ft 314 kts 165°
2026-05-04 10:39 43.35177 12.16252 23141 ft 323 kts 165°
2026-05-04 10:39 43.33015 12.17127 23143 ft 323 kts 165°
2026-05-04 10:39 43.30855 12.18001 23145 ft 323 kts 165°
2026-05-04 10:40 43.28713 12.18866 23143 ft 323 kts 165°
2026-05-04 10:40 43.26571 12.19731 23145 ft 322 kts 165°
2026-05-04 10:40 43.24406 12.20605 23146 ft 322 kts 165°
2026-05-04 10:40 43.22263 12.21468 23147 ft 322 kts 165°
2026-05-04 10:41 43.20090 12.22343 23145 ft 322 kts 165°
2026-05-04 10:41 43.17939 12.23209 23148 ft 322 kts 165°
2026-05-04 10:41 43.15799 12.24070 23151 ft 322 kts 165°
2026-05-04 10:41 43.13656 12.24931 23153 ft 322 kts 165°
2026-05-04 10:42 43.11476 12.25806 23152 ft 322 kts 165°
2026-05-04 10:42 43.09345 12.26661 23148 ft 322 kts 165°
2026-05-04 10:42 43.07173 12.27532 23147 ft 322 kts 165°
2026-05-04 10:42 43.05035 12.28389 23154 ft 322 kts 166°
2026-05-04 10:43 43.02871 12.29255 23153 ft 322 kts 166°
2026-05-04 10:44 42.87748 12.35292 23152 ft 323 kts 165°
2026-05-04 10:45 42.85614 12.36141 23152 ft 323 kts 165°
2026-05-04 10:45 42.83434 12.37009 23151 ft 323 kts 165°
2026-05-04 10:45 42.81261 12.37872 23151 ft 323 kts 166°
2026-05-04 10:45 42.79108 12.38727 23151 ft 323 kts 165°
2026-05-04 10:46 42.76958 12.39581 23151 ft 323 kts 165°
2026-05-04 10:46 42.74780 12.40445 23152 ft 323 kts 166°
2026-05-04 10:46 42.72622 12.41300 23151 ft 324 kts 166°
2026-05-04 10:46 42.70441 12.42164 23151 ft 324 kts 166°
2026-05-04 10:47 42.68280 12.43019 23149 ft 324 kts 166°
2026-05-04 10:47 42.66135 12.43868 23148 ft 324 kts 166°
2026-05-04 10:47 42.63949 12.44731 23150 ft 324 kts 166°
2026-05-04 10:47 42.61785 12.45586 23148 ft 324 kts 166°
2026-05-04 10:49 42.46571 12.51576 23153 ft 326 kts 166°
2026-05-04 10:49 42.44388 12.52433 23157 ft 326 kts 166°
2026-05-04 10:50 42.42222 12.53283 23157 ft 326 kts 166°
2026-05-04 10:51 42.26930 12.59264 23168 ft 327 kts 166°
2026-05-04 10:52 42.24752 12.59973 23152 ft 324 kts 175°
2026-05-04 10:52 42.22504 12.60008 23178 ft 320 kts 184°
2026-05-04 10:52 42.20271 12.59892 23178 ft 320 kts 185°
2026-05-04 10:54 42.04592 12.59106 23165 ft 326 kts 184°
2026-05-04 10:54 42.02316 12.58997 23165 ft 329 kts 184°
2026-05-04 10:56 41.86136 12.58243 23165 ft 328 kts 185°
2026-05-04 10:56 41.83871 12.58137 23167 ft 327 kts 185°
2026-05-04 10:56 41.81590 12.58031 23165 ft 326 kts 184°
2026-05-04 10:57 41.79307 12.57924 23164 ft 326 kts 184°
2026-05-04 10:57 41.77062 12.57819 23166 ft 325 kts 184°
2026-05-04 10:57 41.74803 12.57714 23170 ft 325 kts 184°
2026-05-04 10:57 41.72538 12.57608 23172 ft 324 kts 184°
2026-05-04 10:58 41.70255 12.57501 23167 ft 324 kts 185°
2026-05-04 10:58 41.68021 12.57397 23163 ft 324 kts 184°
2026-05-04 10:58 41.65731 12.57291 23162 ft 324 kts 184°
2026-05-04 10:58 41.63483 12.57187 23165 ft 324 kts 185°
2026-05-04 10:59 41.61228 12.57082 23164 ft 324 kts 185°
2026-05-04 10:59 41.58995 12.56979 23163 ft 324 kts 185°
2026-05-04 10:59 41.56731 12.56874 23164 ft 324 kts 184°
2026-05-04 10:59 41.54467 12.56770 23161 ft 324 kts 184°
2026-05-04 11:00 41.52243 12.56667 23160 ft 324 kts 185°
2026-05-04 11:01 41.36434 12.55938 23152 ft 325 kts 185°
2026-05-04 11:02 41.34184 12.55835 23154 ft 325 kts 185°
2026-05-04 11:02 41.31934 12.55732 23152 ft 325 kts 185°
2026-05-04 11:05 41.00529 12.54300 23154 ft 329 kts 185°
2026-05-04 11:06 40.99864 12.54270 23155 ft 329 kts 185°
2026-05-04 11:06 40.99535 12.54255 23143 ft 329 kts 184°
2026-05-04 11:06 40.97239 12.54151 23141 ft 328 kts 184°
2026-05-04 11:06 40.94971 12.54049 23141 ft 327 kts 184°
2026-05-04 11:08 40.79121 12.53331 23146 ft 327 kts 185°
2026-05-04 11:10 40.63089 12.52609 23141 ft 331 kts 185°
2026-05-04 11:12 40.46901 12.51886 23139 ft 334 kts 185°
2026-05-04 11:12 40.44598 12.51783 23143 ft 334 kts 185°
2026-05-04 11:12 40.42269 12.51680 23141 ft 334 kts 185°
2026-05-04 11:12 40.39932 12.51576 23142 ft 335 kts 185°
2026-05-04 11:13 40.37599 12.51472 23141 ft 335 kts 185°
2026-05-04 11:13 40.35280 12.51368 23140 ft 335 kts 185°
2026-05-04 11:13 40.32940 12.51265 23143 ft 335 kts 185°
2026-05-04 11:13 40.30629 12.51162 23144 ft 335 kts 185°
2026-05-04 11:14 40.28273 12.51057 23144 ft 335 kts 185°
2026-05-04 11:14 40.25959 12.50954 23142 ft 336 kts 185°
2026-05-04 11:14 40.23617 12.50850 23140 ft 336 kts 185°
2026-05-04 11:16 40.07213 12.50124 23145 ft 337 kts 185°
2026-05-04 11:16 40.04875 12.50020 23144 ft 337 kts 185°
2026-05-04 11:16 40.02535 12.49917 23142 ft 338 kts 185°
2026-05-04 11:17 40.00178 12.49813 23142 ft 338 kts 185°
2026-05-04 11:17 39.97833 12.49710 23142 ft 338 kts 185°
2026-05-04 11:19 39.81365 12.48986 23146 ft 338 kts 185°
2026-05-04 11:19 39.79013 12.48884 23147 ft 338 kts 185°
2026-05-04 11:19 39.76651 12.48780 23151 ft 338 kts 185°
2026-05-04 11:19 39.74308 12.48678 23150 ft 338 kts 186°
2026-05-04 11:20 39.71957 12.48575 23149 ft 338 kts 185°
2026-05-04 11:20 39.69599 12.48472 23148 ft 338 kts 186°
2026-05-04 11:20 39.67260 12.48370 23149 ft 338 kts 186°
2026-05-04 11:20 39.64916 12.48268 23145 ft 338 kts 186°
2026-05-04 11:22 39.48408 12.48137 23154 ft 343 kts 173°
2026-05-04 11:22 39.46059 12.48691 23150 ft 344 kts 173°
2026-05-04 11:23 39.43721 12.49240 23149 ft 344 kts 173°
2026-05-04 11:23 39.41373 12.49783 23149 ft 344 kts 173°
2026-05-04 11:24 39.27190 12.52967 23147 ft 345 kts 174°
2026-05-04 11:25 39.24809 12.53493 23146 ft 345 kts 174°
2026-05-04 11:25 39.22440 12.54016 23145 ft 345 kts 174°
2026-05-04 11:25 39.20062 12.54539 23149 ft 345 kts 174°
2026-05-04 11:26 39.15319 12.55581 23145 ft 345 kts 174°
2026-05-04 11:27 38.98618 12.59246 21643 ft 344 kts 173°
2026-05-04 11:28 38.96294 12.59757 21115 ft 340 kts 174°
2026-05-04 11:28 38.93970 12.60267 20597 ft 336 kts 173°
2026-05-04 11:28 38.91684 12.60767 20090 ft 333 kts 173°
2026-05-04 11:28 38.89396 12.61265 19575 ft 330 kts 173°
2026-05-04 11:29 38.87119 12.61760 19066 ft 328 kts 173°
2026-05-04 11:29 38.84884 12.62245 18556 ft 326 kts 173°
2026-05-04 11:29 38.82649 12.62729 18057 ft 325 kts 173°
2026-05-04 11:29 38.80430 12.63210 17571 ft 324 kts 173°
2026-05-04 11:31 38.65008 12.66559 13176 ft 323 kts 172°
2026-05-04 11:33 38.50193 12.71577 8160 ft 289 kts 162°
2026-05-04 11:33 38.48329 12.72363 7704 ft 279 kts 162°
2026-05-04 11:33 38.46530 12.73115 7372 ft 265 kts 162°
2026-05-04 11:34 38.44802 12.73833 7111 ft 252 kts 162°
2026-05-04 11:34 38.43176 12.74505 6849 ft 241 kts 163°
2026-05-04 11:34 38.41584 12.75155 6593 ft 238 kts 162°
2026-05-04 11:34 38.40008 12.75799 6334 ft 236 kts 162°
2026-05-04 11:35 38.38466 12.76430 6075 ft 234 kts 162°
2026-05-04 11:35 38.36903 12.77070 5830 ft 232 kts 162°
2026-05-04 11:35 38.35377 12.77694 5590 ft 231 kts 162°
2026-05-04 11:35 38.33844 12.78321 5350 ft 230 kts 162°
2026-05-04 11:36 38.32318 12.78945 5111 ft 228 kts 162°
2026-05-04 11:36 38.30824 12.79554 5012 ft 226 kts 162°
2026-05-04 11:36 38.29337 12.80159 4978 ft 222 kts 162°
2026-05-04 11:36 38.27871 12.80756 4970 ft 219 kts 162°
2026-05-04 11:37 38.26416 12.81348 4932 ft 217 kts 162°
2026-05-04 11:37 38.24971 12.81943 4730 ft 218 kts 161°
2026-05-04 11:37 38.23585 12.82640 4484 ft 213 kts 157°
2026-05-04 11:37 38.22226 12.83382 4234 ft 207 kts 156°
2026-05-04 11:38 38.20929 12.84089 3983 ft 203 kts 156°
2026-05-04 11:38 38.19638 12.84789 3732 ft 198 kts 156°
2026-05-04 11:38 38.18386 12.85471 3470 ft 190 kts 156°
2026-05-04 11:38 38.17189 12.86120 3211 ft 183 kts 156°
2026-05-04 11:39 38.16032 12.86744 2967 ft 181 kts 157°
2026-05-04 11:39 38.15845 12.86844 2928 ft 181 kts 156°
2026-05-04 11:40 38.13385 12.88168 2432 ft 173 kts 156°
2026-05-04 11:41 38.12336 12.88746 2330 ft 156 kts 152°
2026-05-04 11:41 38.11679 12.89736 2295 ft 157 kts 98°
2026-05-04 11:41 38.11858 12.91177 2327 ft 178 kts 73°
2026-05-04 11:41 38.12304 12.92767 2315 ft 199 kts 70°
2026-05-04 11:42 38.12820 12.94423 2284 ft 201 kts 69°
2026-05-04 11:42 38.13341 12.96023 2214 ft 196 kts 68°
2026-05-04 11:42 38.13861 12.97596 1891 ft 184 kts 68°
2026-05-04 11:42 38.14330 12.99010 1632 ft 166 kts 68°
2026-05-04 11:43 38.14751 13.00291 1445 ft 150 kts 68°
2026-05-04 11:43 38.15119 13.01477 1400 ft 140 kts 69°
2026-05-04 11:43 38.15470 13.02628 1161 ft 136 kts 68°
2026-05-04 11:43 38.15801 13.03716 917 ft 133 kts 67°
2026-05-04 11:44 38.15862 13.03914 870 ft 132 kts 67°
2026-05-04 11:44 38.16050 13.04517 756 ft 130 kts 66°
2026-05-04 11:45 38.16254 13.05153 656 ft 126 kts 65°
2026-05-04 11:45 38.16541 13.06016 516 ft 130 kts 65°
2026-05-04 11:45 38.16901 13.07102 405 ft 132 kts 63°
2026-05-04 11:45 38.17255 13.08136 206 ft 123 kts 63°
2026-05-04 11:46 38.17582 13.09112 55 ft 112 kts 63°
2026-05-04 11:46 38.17848 13.09882 65 ft 69 kts 67°
2026-05-04 11:46 38.17991 13.10311 71 ft 42 kts 66°
2026-05-04 11:46 38.18060 13.10468 73 ft 8 kts 44°
2026-05-04 11:47 38.18062 13.10509 73 ft 6 kts 95°
2026-05-04 11:47 38.18099 13.10630 74 ft 24 kts 66°
2026-05-04 11:47 38.18160 13.10735 74 ft 9 kts 345°
2026-05-04 11:47 38.18182 13.10651 73 ft 12 kts 275°
2026-05-04 11:48 38.18192 13.10534 71 ft 15 kts 277°
2026-05-04 11:48 38.18208 13.10407 68 ft 12 kts 293°
2026-05-04 11:48 38.18257 13.10360 67 ft 9 kts 338°
2026-05-04 11:48 38.18310 13.10328 66 ft 9 kts 333°
2026-05-04 11:49 38.18368 13.10294 65 ft 7 kts 336°
2026-05-04 11:49 38.18389 13.10267 64 ft 5 kts 254°
2026-05-04 11:49 38.18371 13.10219 63 ft 7 kts 246°
2026-05-04 11:49 38.18366 13.10200 63 ft 0 kts 248°